[[{"header":{"parameterUnit":"m.s-1","parameterCategory":1,"la1":30.2991,"la2":30.254,"lo1":-89.0895,"lo2":-89.0444,"dy":0.0017,"dx":0.0017,"nx":28,"ny":28,"refTime":"2025-01-04T09:00:00:Z","depth":0,"parameterNumber":2,"parameterNumberName":"U-component_of_WINDS"},"data":[0,0,0,0,0,0,0,0,0,0,0,0,0,0,0,0,0,0,0,0,0,0,0,0,0,0,0,0,0,0,0,0,0,0,0,0,0,0,0,0,0,0,0,0,0,0,0,0,0,0,0,0,0,0,0,0,0,0,-4.824,-4.824,0,-4.83,-4.83,-4.8301,-4.8147,-4.8142,-4.8137,-4.8132,-4.8196,-4.8202,-4.8208,0,0,0,0,0,0,0,0,0,0,0,0,0,-4.7992,-4.7998,-4.824,-4.824,-4.8241,-4.8299,-4.83,-4.8301,-4.8147,-4.8141,-4.8136,-4.813,-4.8194,-4.8201,-4.8208,0,0,0,0,0,0,0,0,0,0,0,0,0,-4.8081,-4.7999,-4.8239,-4.8171,-4.8166,-4.8299,-4.83,-4.8301,-4.8149,-4.8141,-4.8134,-4.8127,-4.8191,-4.82,-4.8209,-4.8412,0,0,-4.8238,-4.8242,0,0,0,0,0,0,0,0,-4.8076,-4.809,-4.8181,-4.8176,-4.817,-4.8208,-4.8236,-4.8339,-4.815,-4.8155,-4.8132,-4.8124,-4.8206,-4.8213,-4.8241,-4.8415,-4.8418,-4.8239,-4.8244,-4.8248,-4.8251,0,0,0,0,0,0,0,-4.807,-4.8087,-4.8263,-4.8182,-4.8176,-4.8138,-4.8142,-4.8255,-4.8221,-4.8154,-4.8143,-4.8152,-4.8202,-4.8232,-4.8241,-4.8419,-4.8238,-4.8247,-4.8252,-4.8256,-4.8762,-4.8769,0,0,0,0,0,0,-4.8073,-4.8083,-4.8261,-4.8265,-4.8104,-4.8148,-4.8153,-4.8203,-4.8219,-4.8214,-4.8158,-4.8145,-4.822,-4.823,-4.8243,-4.8481,-4.8248,-4.8257,-4.8262,-4.8754,-4.8763,-4.8772,0,0,0,0,0,0,-4.8068,-4.809,-4.8259,-4.8171,-4.8189,-4.816,-4.8218,-4.8208,-4.8239,-4.8222,-4.8215,-4.8196,-4.8214,-4.823,-4.8371,-4.8481,-4.8261,-4.827,-4.8745,-4.8757,-4.8768,-4.8959,0,0,0,0,0,0,-4.8062,-4.8089,-4.8166,-4.8174,-4.8195,-4.8387,-4.8224,-4.8215,-4.8255,-4.8238,-4.8255,-4.8251,-4.821,-4.8358,-4.838,-4.849,-4.8277,-4.8735,-4.875,-4.8764,-4.8943,-4.8976,-4.9004,0,0,0,0,0,-4.8053,-4.8218,-4.8171,-4.8193,-4.829,-4.8393,-4.8405,-4.8354,-4.8264,-4.8341,-4.833,-4.8251,-4.8465,-4.8374,-4.8397,-4.8512,-4.8728,-4.8746,-4.8763,-4.8929,-4.897,-4.9004,0,0,0,0,0,0,-4.8225,-4.8218,-4.8165,-4.8338,-4.8367,-4.8367,-4.8463,-4.8398,-4.8454,-4.8436,-4.837,-4.8375,-4.8529,-4.8534,-4.8432,-4.8708,-4.8581,-4.8604,-4.8699,-4.8738,-4.8768,-4.8764,-4.8285,0,0,0,0,0,-4.8283,-4.8367,-4.8356,-4.851,-4.8527,-4.8493,-4.8536,-4.8493,-4.8521,-4.8533,-4.8532,-4.8563,-4.8637,-4.8687,-4.8754,-4.8942,-4.8944,-4.9032,-4.9063,-4.9088,-4.911,-4.9209,-4.9248,-4.883,-4.883,-4.8829,0,0,-4.8404,-4.841,-4.8468,-4.8544,-4.8562,-4.8651,-4.8504,-4.8604,-4.867,-4.8548,-4.8682,-4.8683,-4.8712,-4.8878,-4.895,-4.8887,-4.9225,-4.9111,-4.9131,-4.9139,-4.9231,-4.9271,-4.9306,-4.8842,-4.884,-4.8838,0,0,-4.8669,-4.8683,-4.8811,-4.8832,-4.886,-4.8836,-4.8867,-4.8877,-4.8872,-4.9005,-4.8915,-4.8992,-4.9121,-4.9145,-4.9175,-4.9449,-4.9378,-4.9472,-4.9633,-4.9731,-4.9764,-4.9793,-4.9891,-4.9926,-4.9493,-4.9494,-4.9494,0,-4.8816,-4.8946,-4.8886,-4.8992,-4.9028,-4.8921,-4.9051,-4.9074,-4.9124,-4.9152,-4.9079,-4.9238,-4.925,-4.942,-4.9486,-4.9514,-4.9547,-4.947,-4.9764,-4.9792,-4.9818,-4.9911,-4.9948,-4.9505,-4.9504,-4.9503,-4.9501,0,-4.9125,-4.9216,-4.9317,-4.9366,-4.9413,-4.9532,-4.9489,-4.9545,-4.9498,-4.9481,-4.9617,-4.9628,-4.9696,-4.9732,-4.9688,-4.9896,-4.9855,-4.9775,-4.9646,-4.9871,-4.9956,-4.9991,-4.9521,-4.9517,-4.9514,-4.9511,0,0,-4.9502,-4.9515,-4.9554,-4.9574,-4.9597,-4.9667,-4.9779,-4.9844,-4.9893,-4.993,-5.0023,-5.0134,-5.0059,-5.0093,-5.005,-5.0136,-5.0351,-5.0044,-5.0043,-5.0101,-5.0581,-5.0642,-5.0684,-5.0304,-5.031,-5.0315,-5.0579,0,-4.9764,-4.9957,-4.9905,-5.0098,-5.0181,-5.008,-5.0178,-5.0203,-5.019,-5.0259,-5.0245,-5.0325,-5.022,-5.0239,-5.0319,-5.0308,-5.0447,-5.0288,-5.039,-5.0395,-5.0387,-5.0729,-5.0794,-5.1042,-5.0612,-5.0617,-5.0622,0,-5.0096,-5.0145,-5.0346,-5.0354,-5.0387,-5.0476,-5.0531,-5.0598,-5.0624,-5.0608,-5.0646,-5.0585,-5.0696,-5.0566,-5.0718,-5.0611,-5.0649,-5.065,-5.0659,-5.0667,-5.0522,-5.0747,-5.112,-5.1158,-5.0674,-5.067,-5.0666,0,-5.0351,-5.0468,-5.0602,-5.0623,-5.0636,-5.0701,-5.0709,-5.0728,-5.077,-5.0818,-5.0844,-5.0905,-5.0939,-5.0987,-5.0945,-5.0854,-5.1104,-5.097,-5.1095,-5.1096,-5.1153,-5.115,-5.1538,-5.1177,-5.1177,-5.1176,-5.1175,0,-5.065,-5.0776,-5.0717,-5.08,-5.0939,-5.0878,-5.1017,-5.1014,-5.1031,-5.1112,-5.1028,-5.1106,-5.1045,-5.1117,-5.1085,-5.1216,-5.1232,-5.1223,-5.1213,-5.1231,-5.1232,-5.1256,-5.1238,-5.1186,-5.1183,-5.1182,-5.118,0,-5.0959,-5.0924,-5.1064,-5.1064,-5.1067,-5.117,-5.117,-5.1247,-5.1227,-5.133,-5.1351,-5.1321,-5.1402,-5.1364,-5.1449,-5.1427,-5.1596,-5.1562,-5.1587,-5.1579,-5.1706,-5.1695,-5.2123,-5.2176,-5.1781,-5.1785,-5.1788,0,-5.1152,-5.1247,-5.1257,-5.1304,-5.1318,-5.1396,-5.1438,-5.1382,-5.143,-5.1465,-5.1538,-5.1611,-5.1667,-5.1801,-5.1787,-5.1852,-5.1819,-5.1965,-5.1829,-5.1844,-5.1822,-5.1817,-5.1826,-5.1993,-5.1998,-5.2001,-5.2004,0,-5.1499,-5.1476,-5.154,-5.1598,-5.165,-5.1693,-5.1729,-5.1773,-5.1718,-5.1775,-5.1856,-5.19,-5.1985,-5.2059,-5.2115,-5.2124,-5.2056,-5.2047,-5.2079,-5.2099,-5.211,-5.2106,-5.1663,-5.2038,-5.2034,-5.2032,-5.203,-5.2029,-5.1756,-5.1835,-5.1854,-5.1928,-5.1948,-5.1984,-5.2056,-5.2045,-5.2111,-5.2176,-5.2139,-5.2234,-5.2256,-5.2324,-5.2342,-5.2415,-5.2358,-5.2405,-5.2417,-5.2429,-5.2446,-5.2098,-5.2425,-5.2424,-5.2423,-5.2423,-5.2422,0,-5.2098,-5.2105,-5.2173,-5.2225,-5.2283,-5.2212,-5.2248,-5.2301,-5.2386,-5.2412,-5.2468,-5.2561,-5.2632,-5.2624,-5.2689,-5.2749,-5.272,-5.2768,-5.2764,-5.2767,-5.2494,-5.246,-5.2791,-5.2791,-5.2791,-5.2791,-5.2791,-5.2791,-5.2283,-5.2413,-5.2393,-5.2533,-5.2539,-5.2631,-5.2657,-5.2689,-5.271,-5.2817,-5.2876,-5.2869,-5.2881,-5.2946,-5.3008,-5.3004,-5.3032,-5.3093,-5.3077,-5.2823,-5.2786,-5.2751,-5.2719,-5.3099,-5.3099,-5.3343,-5.3345,-5.3347]},{"header":{"parameterUnit":"m.s-1","parameterCategory":1,"la1":30.2991,"la2":30.254,"lo1":-89.0895,"lo2":-89.0444,"dy":0.0017,"dx":0.0017,"nx":28,"ny":28,"refTime":"2025-01-04T09:00:00:Z","depth":0,"parameterNumber":3,"parameterNumberName":"V-component_of_WINDS"},"data":[0,0,0,0,0,0,0,0,0,0,0,0,0,0,0,0,0,0,0,0,0,0,0,0,0,0,0,0,0,0,0,0,0,0,0,0,0,0,0,0,0,0,0,0,0,0,0,0,0,0,0,0,0,0,0,0,0,0,-2.2784,-2.2784,0,-2.2804,-2.2804,-2.2804,-2.279,-2.2789,-2.2789,-2.2788,-2.2808,-2.2809,-2.281,0,0,0,0,0,0,0,0,0,0,0,0,0,-2.2731,-2.2732,-2.2784,-2.2784,-2.2784,-2.2804,-2.2804,-2.2804,-2.279,-2.2789,-2.2789,-2.2788,-2.2807,-2.2809,-2.281,0,0,0,0,0,0,0,0,0,0,0,0,0,-2.2753,-2.2732,-2.2784,-2.278,-2.2779,-2.2804,-2.2804,-2.2804,-2.279,-2.2789,-2.2788,-2.2787,-2.2807,-2.2809,-2.281,-2.284,0,0,-2.2815,-2.2816,0,0,0,0,0,0,0,0,-2.2751,-2.2755,-2.278,-2.278,-2.278,-2.2793,-2.2793,-2.2816,-2.279,-2.2786,-2.2788,-2.2787,-2.2804,-2.2806,-2.2811,-2.284,-2.2841,-2.2815,-2.2816,-2.2817,-2.2818,0,0,0,0,0,0,0,-2.275,-2.2754,-2.2792,-2.278,-2.278,-2.2776,-2.2778,-2.2797,-2.28,-2.2786,-2.2785,-2.2788,-2.2803,-2.281,-2.2812,-2.2842,-2.2815,-2.2817,-2.2818,-2.2819,-2.2893,-2.2894,0,0,0,0,0,0,-2.2749,-2.2753,-2.2791,-2.2792,-2.2763,-2.2778,-2.278,-2.279,-2.28,-2.28,-2.2789,-2.2787,-2.2807,-2.281,-2.2812,-2.2845,-2.2817,-2.2819,-2.282,-2.2892,-2.2893,-2.2894,0,0,0,0,0,0,-2.2748,-2.2753,-2.279,-2.2772,-2.2777,-2.278,-2.2791,-2.2791,-2.2797,-2.2802,-2.2802,-2.2795,-2.2807,-2.281,-2.2832,-2.2846,-2.2819,-2.2821,-2.2891,-2.2892,-2.2894,-2.2913,0,0,0,0,0,0,-2.2747,-2.2752,-2.2764,-2.2773,-2.2778,-2.2811,-2.2792,-2.2792,-2.28,-2.2798,-2.2807,-2.2808,-2.2806,-2.283,-2.2834,-2.2848,-2.2822,-2.289,-2.2892,-2.2893,-2.2911,-2.2915,-2.2918,0,0,0,0,0,-2.2745,-2.2769,-2.2765,-2.277,-2.2793,-2.2812,-2.2814,-2.2812,-2.2802,-2.2813,-2.2815,-2.2808,-2.2844,-2.2832,-2.2837,-2.2851,-2.2889,-2.2891,-2.2893,-2.291,-2.2914,-2.2918,0,0,0,0,0,0,-2.2763,-2.2771,-2.2766,-2.2794,-2.2802,-2.2809,-2.2824,-2.2818,-2.2829,-2.2827,-2.2823,-2.2826,-2.2849,-2.2852,-2.2839,-2.2879,-2.2865,-2.2868,-2.2876,-2.288,-2.2884,-2.2882,-2.2824,0,0,0,0,0,-2.277,-2.2786,-2.2791,-2.2815,-2.282,-2.2821,-2.2829,-2.2827,-2.2835,-2.2838,-2.2842,-2.285,-2.2863,-2.2872,-2.2885,-2.2912,-2.2913,-2.2924,-2.2928,-2.293,-2.2933,-2.2945,-2.295,-2.2901,-2.2901,-2.2901,0,0,-2.2786,-2.2792,-2.2802,-2.2819,-2.2825,-2.284,-2.2824,-2.2841,-2.2852,-2.2841,-2.2862,-2.2865,-2.2873,-2.2898,-2.2909,-2.2902,-2.2946,-2.2933,-2.2936,-2.2936,-2.2948,-2.2953,-2.2957,-2.2903,-2.2903,-2.2902,0,0,-2.2821,-2.2828,-2.2848,-2.2854,-2.2863,-2.2863,-2.2868,-2.2875,-2.2877,-2.2898,-2.2889,-2.2901,-2.2925,-2.293,-2.2936,-2.2971,-2.2964,-2.2975,-2.2993,-2.3006,-2.301,-2.3013,-2.3024,-2.3028,-2.2978,-2.2978,-2.2978,0,-2.2839,-2.2861,-2.2859,-2.2875,-2.2882,-2.2873,-2.2892,-2.2898,-2.2911,-2.2916,-2.2907,-2.2935,-2.294,-2.2964,-2.2973,-2.2979,-2.2982,-2.2974,-2.3009,-2.3013,-2.3016,-2.3026,-2.303,-2.2979,-2.2979,-2.2979,-2.2979,0,-2.2881,-2.2897,-2.2912,-2.2924,-2.2932,-2.2951,-2.2949,-2.2959,-2.2955,-2.2956,-2.2976,-2.2981,-2.2994,-2.3,-2.2997,-2.3023,-2.3018,-2.301,-2.2995,-2.3022,-2.3031,-2.3035,-2.2981,-2.298,-2.298,-2.298,0,0,-2.293,-2.2938,-2.2944,-2.2948,-2.2956,-2.2968,-2.2984,-2.2996,-2.3003,-2.3012,-2.3025,-2.3044,-2.3035,-2.3042,-2.3039,-2.305,-2.3075,-2.304,-2.304,-2.3045,-2.3103,-2.3108,-2.3113,-2.3071,-2.3071,-2.3072,-2.3101,0,-2.2964,-2.2993,-2.299,-2.3017,-2.303,-2.3021,-2.3035,-2.3041,-2.3042,-2.3052,-2.3053,-2.3066,-2.3055,-2.3058,-2.3069,-2.307,-2.3086,-2.3068,-2.3081,-2.3082,-2.3078,-2.3118,-2.3124,-2.3151,-2.3105,-2.3106,-2.3106,0,-2.3008,-2.3017,-2.3046,-2.305,-2.3055,-2.3068,-2.3077,-2.3088,-2.3094,-2.3094,-2.31,-2.3095,-2.3111,-2.3096,-2.3116,-2.3104,-2.3109,-2.311,-2.3111,-2.3111,-2.3095,-2.3118,-2.316,-2.3164,-2.3112,-2.3112,-2.3111,0,-2.3038,-2.3058,-2.3076,-2.308,-2.3087,-2.3095,-2.3098,-2.3103,-2.311,-2.3118,-2.3122,-2.3132,-2.3137,-2.3145,-2.3142,-2.3132,-2.3162,-2.3148,-2.3161,-2.3161,-2.3167,-2.3167,-2.321,-2.3173,-2.3173,-2.3173,-2.3172,0,-2.3076,-2.3093,-2.3089,-2.3101,-2.3119,-2.3115,-2.3134,-2.3135,-2.3139,-2.315,-2.3143,-2.3153,-2.3149,-2.3159,-2.3157,-2.3173,-2.3176,-2.3175,-2.3174,-2.3175,-2.3175,-2.3178,-2.3175,-2.3174,-2.3173,-2.3173,-2.3173,0,-2.3112,-2.3111,-2.313,-2.3134,-2.3135,-2.3148,-2.3151,-2.3161,-2.316,-2.3174,-2.3177,-2.3176,-2.3187,-2.3185,-2.3198,-2.3196,-2.3216,-2.3213,-2.3213,-2.3212,-2.3225,-2.3223,-2.3271,-2.3276,-2.3237,-2.3237,-2.3238,0,-2.3136,-2.3149,-2.3153,-2.3159,-2.3162,-2.3174,-2.318,-2.3176,-2.3182,-2.3189,-2.3198,-2.3208,-2.3216,-2.3233,-2.3234,-2.3242,-2.3239,-2.3255,-2.324,-2.324,-2.3237,-2.3236,-2.3237,-2.3258,-2.3258,-2.3258,-2.3259,0,-2.3177,-2.3175,-2.3185,-2.3193,-2.32,-2.3207,-2.3213,-2.3218,-2.3215,-2.3222,-2.3233,-2.3239,-2.3251,-2.326,-2.3268,-2.327,-2.3263,-2.3263,-2.3266,-2.3267,-2.3266,-2.3265,-2.322,-2.3262,-2.3262,-2.3261,-2.3261,-2.3261,-2.3207,-2.3217,-2.3221,-2.3231,-2.3234,-2.3239,-2.3248,-2.3249,-2.3257,-2.3266,-2.3263,-2.3275,-2.3279,-2.3289,-2.3292,-2.33,-2.3294,-2.3299,-2.33,-2.3301,-2.3302,-2.3266,-2.3302,-2.3302,-2.3302,-2.3302,-2.3302,0,-2.3246,-2.3248,-2.3257,-2.3265,-2.3272,-2.3265,-2.327,-2.3277,-2.3287,-2.3291,-2.3298,-2.331,-2.3319,-2.3319,-2.3327,-2.3334,-2.3331,-2.3336,-2.3335,-2.3335,-2.3308,-2.3304,-2.3338,-2.3338,-2.3338,-2.3338,-2.3338,-2.3338,-2.3268,-2.3284,-2.3282,-2.3299,-2.33,-2.3311,-2.3315,-2.3319,-2.3322,-2.3334,-2.3342,-2.3342,-2.3344,-2.3352,-2.3359,-2.3359,-2.3361,-2.3368,-2.3366,-2.3341,-2.3337,-2.3334,-2.3329,-2.3369,-2.3369,-2.3392,-2.3392,-2.3392]}]]